Location: Karcze
(52.0945°N, 22.4786°E)
Time: 23:14:25
(UTC+00:00)

Transit 2A Rocket - Pass Details

Date: 29 July 2021
Orbit: 586 x 917 km, 66.7° (Epoch: 26 September)

Event Time Altitude Azimuth Distance (km) Brightness Sun altitude
Rises 17:45:45 0° 304° (NW) 3,046 10.5 4.5°
Reaches altitude 10° 17:48:54 10° 326° (NNW) 2,197 8.6 4.0°
Maximum altitude 17:51:59 16° 5° (N) 1,881 7.4 3.6°
Drops below altitude 10° 17:55:14 10° 42° (NE) 2,335 7.4 3.2°
Sets 17:58:44 0° 64° (ENE) 3,339 7.9 2.7°
